Time,TemperatureF,DewpointF,PressureIn,WindDirection,WindDirectionDegrees,WindSpeedMPH,WindSpeedGustMPH,Humidity,HourlyPrecipIn,Conditions,Clouds,dailyrainin,SoftwareType,DateUTC
2013-12-03 00:02:00,60.8,59.9,29.80,West,270,2.3,2.3,97,0.00,CLR,SKC,0.00,WeatherDisplay:10.37,2013-12-03 06:02:00,
2013-12-03 00:07:00,61.0,60.1,29.80,West,270,2.3,2.3,97,0.00,CLR,SKC,0.00,WeatherDisplay:10.37,2013-12-03 06:07:00,
2013-12-03 00:12:00,61.0,60.1,29.80,WNW,292,2.3,2.3,97,0.00,CLR,SKC,0.00,WeatherDisplay:10.37,2013-12-03 06:12:00,
2013-12-03 00:17:00,61.2,60.3,29.80,NNE,22,1.4,0.0,97,0.00,CLR,SKC,0.00,WeatherDisplay:10.37,2013-12-03 06:17:00,
2013-12-03 00:22:00,61.0,60.1,29.80,WNW,292,1.2,1.2,97,0.00,CLR,SKC,0.00,WeatherDisplay:10.37,2013-12-03 06:22:00,
2013-12-03 00:27:00,61.0,60.1,29.80,NW,315,2.3,2.3,97,0.00,CLR,SKC,0.00,WeatherDisplay:10.37,2013-12-03 06:27:00,
2013-12-03 00:32:00,61.0,60.1,29.80,West,270,3.5,3.5,97,0.00,CLR,SKC,0.00,WeatherDisplay:10.37,2013-12-03 06:32:00,
2013-12-03 00:37:00,61.0,60.1,29.80,WNW,292,2.6,2.6,97,0.00,CLR,SKC,0.00,WeatherDisplay:10.37,2013-12-03 06:37:00,
2013-12-03 00:42:00,61.2,60.3,29.80,WNW,292,3.5,3.5,97,0.00,CLR,SKC,0.00,WeatherDisplay:10.37,2013-12-03 06:42:00,
2013-12-03 00:47:00,61.3,60.5,29.80,West,270,3.5,3.5,97,0.00,CLR,SKC,0.00,WeatherDisplay:10.37,2013-12-03 06:47:00,
2013-12-03 00:52:00,61.5,60.7,29.80,West,270,2.6,2.6,97,0.00,CLR,SKC,0.00,WeatherDisplay:10.37,2013-12-03 06:52:00,
2013-12-03 00:57:00,61.7,60.8,29.80,SSW,202,1.2,1.2,97,0.00,CLR,SKC,0.00,WeatherDisplay:10.37,2013-12-03 06:57:00,
2013-12-03 01:02:00,61.7,60.8,29.80,WSW,248,2.3,2.3,97,0.00,CLR,SKC,0.00,WeatherDisplay:10.37,2013-12-03 07:02:00,
2013-12-03 01:07:00,61.7,60.8,29.80,WSW,248,2.3,2.3,97,0.00,CLR,SKC,0.00,WeatherDisplay:10.37,2013-12-03 07:07:00,
2013-12-03 01:12:00,61.9,61.0,29.80,NW,315,1.2,0.0,97,0.00,CLR,SKC,0.00,WeatherDisplay:10.37,2013-12-03 07:12:00,
2013-12-03 01:17:00,61.7,60.8,29.80,WNW,292,0.0,0.0,97,0.00,CLR,SKC,0.00,WeatherDisplay:10.37,2013-12-03 07:17:00,
2013-12-03 01:22:00,61.7,60.8,29.80,WNW,292,2.0,2.0,97,0.00,CLR,SKC,0.00,WeatherDisplay:10.37,2013-12-03 07:22:00,
2013-12-03 01:27:00,61.7,60.8,29.80,WNW,292,1.2,0.0,97,0.00,CLR,SKC,0.00,WeatherDisplay:10.37,2013-12-03 07:27:00,
2013-12-03 01:32:00,61.9,61.0,29.80,NW,315,2.3,2.3,97,0.00,CLR,SKC,0.00,WeatherDisplay:10.37,2013-12-03 07:32:00,
2013-12-03 01:37:00,61.9,61.0,29.80,NW,315,2.3,2.3,97,0.00,CLR,SKC,0.00,WeatherDisplay:10.37,2013-12-03 07:37:00,
2013-12-03 01:42:00,61.9,61.0,29.80,West,270,1.4,1.4,97,0.00,CLR,SKC,0.00,WeatherDisplay:10.37,2013-12-03 07:42:00,
2013-12-03 01:47:00,61.9,61.0,29.80,WSW,248,2.3,2.3,97,0.00,CLR,SKC,0.00,WeatherDisplay:10.37,2013-12-03 07:47:00,
2013-12-03 01:52:00,61.9,61.0,29.80,WNW,292,2.3,2.3,97,0.00,CLR,SKC,0.00,WeatherDisplay:10.37,2013-12-03 07:52:00,
2013-12-03 01:57:00,61.9,61.0,29.80,West,270,3.1,3.1,97,0.00,CLR,SKC,0.00,WeatherDisplay:10.37,2013-12-03 07:57:00,
2013-12-03 02:02:00,62.1,61.2,29.80,West,270,2.3,2.3,97,0.00,CLR,SKC,0.00,WeatherDisplay:10.37,2013-12-03 08:02:00,
2013-12-03 02:07:00,62.1,61.2,29.80,SSW,202,1.6,0.0,97,0.00,CLR,SKC,0.00,WeatherDisplay:10.37,2013-12-03 08:07:00,
2013-12-03 02:12:00,62.1,61.2,29.80,WNW,292,1.2,0.0,97,0.00,CLR,SKC,0.00,WeatherDisplay:10.37,2013-12-03 08:12:00,
2013-12-03 02:17:00,62.1,61.2,29.80,WSW,248,1.2,0.0,97,0.00,CLR,SKC,0.00,WeatherDisplay:10.37,2013-12-03 08:17:00,
2013-12-03 02:22:00,61.9,61.0,29.80,SSW,202,0.0,0.0,97,0.00,CLR,SKC,0.00,WeatherDisplay:10.37,2013-12-03 08:22:00,
2013-12-03 02:27:00,61.9,61.0,29.80,NW,315,1.2,0.0,97,0.00,CLR,SKC,0.00,WeatherDisplay:10.37,2013-12-03 08:27:00,
2013-12-03 02:32:00,61.7,60.8,29.80,West,270,1.2,1.2,97,0.00,CLR,SKC,0.00,WeatherDisplay:10.37,2013-12-03 08:32:00,
2013-12-03 02:37:00,61.7,60.8,29.80,WSW,248,0.0,0.0,97,0.00,CLR,SKC,0.00,WeatherDisplay:10.37,2013-12-03 08:37:00,
2013-12-03 02:42:00,61.5,60.7,29.80,SSW,202,0.0,0.0,97,0.00,CLR,SKC,0.00,WeatherDisplay:10.37,2013-12-03 08:42:00,
2013-12-03 02:47:00,61.5,60.7,29.80,WSW,248,1.4,0.0,97,0.00,CLR,SKC,0.00,WeatherDisplay:10.37,2013-12-03 08:47:00,
2013-12-03 02:52:00,61.5,60.7,29.80,WNW,292,3.1,3.1,97,0.00,CLR,SKC,0.00,WeatherDisplay:10.37,2013-12-03 08:52:00,
2013-12-03 02:57:00,61.7,60.8,29.80,WNW,292,1.2,0.0,97,0.00,CLR,SKC,0.00,WeatherDisplay:10.37,2013-12-03 08:57:00,
2013-12-03 03:02:00,61.7,60.8,29.80,SW,225,1.2,1.2,97,0.00,CLR,SKC,0.00,WeatherDisplay:10.37,2013-12-03 09:02:00,
2013-12-03 03:07:00,61.7,60.8,29.80,WNW,292,1.2,1.2,97,0.00,CLR,SKC,0.00,WeatherDisplay:10.37,2013-12-03 09:07:00,
2013-12-03 03:12:00,61.7,60.8,29.83,South,180,0.0,0.0,97,0.00,CLR,SKC,0.00,WeatherDisplay:10.37,2013-12-03 09:12:00,
2013-12-03 03:17:00,61.7,60.8,29.83,West,270,1.2,1.2,97,0.00,CLR,SKC,0.00,WeatherDisplay:10.37,2013-12-03 09:17:00,
2013-12-03 03:22:00,61.7,60.8,29.83,WNW,292,2.4,2.4,97,0.00,CLR,SKC,0.00,WeatherDisplay:10.37,2013-12-03 09:22:00,
2013-12-03 03:27:00,61.9,61.0,29.80,West,270,2.3,2.4,97,0.00,CLR,SKC,0.00,WeatherDisplay:10.37,2013-12-03 09:27:00,
2013-12-03 03:32:00,61.9,61.0,29.80,West,270,2.3,2.3,97,0.00,CLR,SKC,0.00,WeatherDisplay:10.37,2013-12-03 09:32:00,
2013-12-03 03:37:00,61.9,61.0,29.80,NW,315,1.2,1.2,97,0.00,CLR,SKC,0.00,WeatherDisplay:10.37,2013-12-03 09:37:00,
2013-12-03 03:42:00,61.9,61.0,29.80,NW,315,2.6,0.0,97,0.00,CLR,SKC,0.00,WeatherDisplay:10.37,2013-12-03 09:42:00,
2013-12-03 03:47:00,61.7,60.8,29.80,WSW,248,1.2,1.2,97,0.00,CLR,SKC,0.00,WeatherDisplay:10.37,2013-12-03 09:47:00,
2013-12-03 03:52:00,61.9,61.0,29.80,WSW,248,3.5,3.5,97,0.00,CLR,SKC,0.00,WeatherDisplay:10.37,2013-12-03 09:52:00,
2013-12-03 03:57:00,61.7,60.8,29.80,WSW,248,2.3,2.3,97,0.00,CLR,SKC,0.00,WeatherDisplay:10.37,2013-12-03 09:57:00,
2013-12-03 04:02:00,61.7,60.8,29.80,West,270,2.3,2.3,97,0.00,CLR,SKC,0.00,WeatherDisplay:10.37,2013-12-03 10:02:00,
2013-12-03 04:07:00,61.7,60.8,29.80,WNW,292,1.2,0.0,97,0.00,CLR,SKC,0.00,WeatherDisplay:10.37,2013-12-03 10:07:00,
2013-12-03 04:12:00,61.7,60.8,29.80,West,270,1.4,1.4,97,0.00,CLR,SKC,0.00,WeatherDisplay:10.37,2013-12-03 10:12:00,
2013-12-03 04:17:00,61.7,60.8,29.80,WNW,292,2.3,2.3,97,0.00,CLR,SKC,0.00,WeatherDisplay:10.37,2013-12-03 10:17:00,
2013-12-03 04:22:00,61.7,60.8,29.80,South,180,2.4,2.4,97,0.00,CLR,SKC,0.00,WeatherDisplay:10.37,2013-12-03 10:22:00,
2013-12-03 04:27:00,61.7,60.8,29.77,SW,225,3.5,3.5,97,0.00,CLR,SKC,0.00,WeatherDisplay:10.37,2013-12-03 10:27:00,
2013-12-03 04:32:00,61.7,60.8,29.77,NW,315,1.4,1.4,97,0.00,CLR,SKC,0.00,WeatherDisplay:10.37,2013-12-03 10:32:00,
2013-12-03 04:37:00,61.7,60.8,29.77,WNW,292,1.4,1.4,97,0.00,CLR,SKC,0.00,WeatherDisplay:10.37,2013-12-03 10:37:00,
2013-12-03 04:42:00,61.9,61.0,29.77,NW,315,1.2,0.0,97,0.00,CLR,SKC,0.00,WeatherDisplay:10.37,2013-12-03 10:42:00,
2013-12-03 04:47:00,61.9,61.0,29.77,West,270,1.2,1.2,97,0.00,CLR,SKC,0.00,WeatherDisplay:10.37,2013-12-03 10:47:00,
2013-12-03 04:52:00,62.1,61.2,29.77,NW,315,1.2,1.2,97,0.00,CLR,SKC,0.00,WeatherDisplay:10.37,2013-12-03 10:52:00,
2013-12-03 04:57:00,62.1,61.2,29.77,West,270,2.0,0.0,97,0.00,CLR,SKC,0.00,WeatherDisplay:10.37,2013-12-03 10:57:00,
2013-12-03 05:02:00,62.2,61.4,29.77,WNW,292,2.6,2.6,97,0.00,CLR,SKC,0.00,WeatherDisplay:10.37,2013-12-03 11:02:00,
2013-12-03 05:07:00,62.4,61.6,29.77,WNW,292,1.2,1.2,97,0.00,CLR,SKC,0.00,WeatherDisplay:10.37,2013-12-03 11:07:00,
2013-12-03 05:12:00,62.4,61.6,29.77,WSW,248,1.4,1.4,97,0.00,CLR,SKC,0.00,WeatherDisplay:10.37,2013-12-03 11:12:00,
2013-12-03 05:17:00,62.4,61.6,29.77,NW,315,3.5,3.5,97,0.00,CLR,SKC,0.00,WeatherDisplay:10.37,2013-12-03 11:17:00,
2013-12-03 05:22:00,62.6,61.7,29.77,NW,315,1.2,0.0,97,0.00,CLR,SKC,0.00,WeatherDisplay:10.37,2013-12-03 11:22:00,
2013-12-03 05:27:00,62.6,61.7,29.77,WSW,248,3.3,3.3,97,0.00,CLR,SKC,0.00,WeatherDisplay:10.37,2013-12-03 11:27:00,
2013-12-03 05:32:00,62.6,61.7,29.77,WSW,248,3.5,3.5,97,0.00,CLR,SKC,0.00,WeatherDisplay:10.37,2013-12-03 11:32:00,
2013-12-03 05:37:00,62.6,61.7,29.77,WSW,248,2.3,2.3,97,0.00,CLR,SKC,0.00,WeatherDisplay:10.37,2013-12-03 11:37:00,
2013-12-03 05:42:00,62.8,61.9,29.77,SW,225,3.5,3.5,97,0.00,CLR,SKC,0.00,WeatherDisplay:10.37,2013-12-03 11:42:00,
2013-12-03 05:47:00,62.8,61.9,29.77,West,270,2.3,2.3,97,0.00,CLR,SKC,0.00,WeatherDisplay:10.37,2013-12-03 11:47:00,
2013-12-03 05:52:00,62.8,61.9,29.77,West,270,2.3,2.3,97,0.00,CLR,SKC,0.00,WeatherDisplay:10.37,2013-12-03 11:52:00,
2013-12-03 05:57:00,63.0,62.1,29.80,WNW,292,3.5,3.5,97,0.00,CLR,SKC,0.00,WeatherDisplay:10.37,2013-12-03 11:57:00,
2013-12-03 06:02:00,63.0,62.1,29.80,WSW,248,2.6,2.6,97,0.00,CLR,SKC,0.00,WeatherDisplay:10.37,2013-12-03 12:02:00,
2013-12-03 06:07:00,62.8,61.9,29.80,NW,315,3.5,3.5,97,0.00,CLR,SKC,0.00,WeatherDisplay:10.37,2013-12-03 12:07:00,
2013-12-03 06:12:00,62.6,61.7,29.80,SSW,202,2.3,2.3,97,0.00,CLR,SKC,0.00,WeatherDisplay:10.37,2013-12-03 12:12:00,
2013-12-03 06:17:00,62.6,61.7,29.80,West,270,2.3,2.3,97,0.00,CLR,SKC,0.00,WeatherDisplay:10.37,2013-12-03 12:17:00,
2013-12-03 06:22:00,62.4,61.6,29.80,NW,315,2.3,2.3,97,0.00,CLR,SKC,0.00,WeatherDisplay:10.37,2013-12-03 12:22:00,
2013-12-03 06:27:00,62.4,61.6,29.80,West,270,3.6,3.6,97,0.00,CLR,SKC,0.00,WeatherDisplay:10.37,2013-12-03 12:27:00,
2013-12-03 06:32:00,62.2,61.4,29.80,NW,315,2.3,2.3,97,0.00,CLR,SKC,0.00,WeatherDisplay:10.37,2013-12-03 12:32:00,
2013-12-03 06:37:00,62.2,61.4,29.80,WNW,292,1.2,0.0,97,0.00,CLR,SKC,0.00,WeatherDisplay:10.37,2013-12-03 12:37:00,
2013-12-03 06:42:00,62.1,61.2,29.80,SW,225,2.3,2.3,97,0.00,CLR,SKC,0.00,WeatherDisplay:10.37,2013-12-03 12:42:00,
2013-12-03 06:47:00,62.1,61.2,29.80,WNW,292,1.2,0.0,97,0.00,CLR,SKC,0.00,WeatherDisplay:10.37,2013-12-03 12:47:00,
2013-12-03 06:52:00,62.1,61.2,29.80,NW,315,1.2,0.0,97,0.00,CLR,SKC,0.00,WeatherDisplay:10.37,2013-12-03 12:52:00,
2013-12-03 06:57:00,62.2,61.4,29.80,WNW,292,0.0,0.0,97,0.00,CLR,SKC,0.00,WeatherDisplay:10.37,2013-12-03 12:57:00,
2013-12-03 07:02:00,62.4,61.6,29.80,SW,225,2.3,2.3,97,0.00,CLR,SKC,0.00,WeatherDisplay:10.37,2013-12-03 13:02:00,
2013-12-03 07:07:00,63.0,62.1,29.80,ESE,112,2.9,0.0,97,0.00,CLR,SKC,0.00,WeatherDisplay:10.37,2013-12-03 13:07:00,
2013-12-03 07:12:00,63.9,63.0,29.80,SSW,202,2.3,2.3,97,0.00,CLR,SKC,0.00,WeatherDisplay:10.37,2013-12-03 13:12:00,
2013-12-03 07:17:00,64.8,63.9,29.80,West,270,3.5,3.5,97,0.00,CLR,SKC,0.00,WeatherDisplay:10.37,2013-12-03 13:17:00,
2013-12-03 07:22:00,65.1,64.2,29.80,WSW,248,2.3,2.3,97,0.00,CLR,SKC,0.00,WeatherDisplay:10.37,2013-12-03 13:22:00,
2013-12-03 07:27:00,65.1,64.2,29.80,West,270,2.3,2.3,97,0.00,CLR,SKC,0.00,WeatherDisplay:10.37,2013-12-03 13:27:00,
2013-12-03 07:32:00,64.9,64.1,29.80,SSE,158,4.6,4.6,97,0.00,CLR,SKC,0.00,WeatherDisplay:10.37,2013-12-03 13:32:00,
2013-12-03 07:37:00,64.9,64.1,29.80,West,270,3.5,3.5,97,0.00,CLR,SKC,0.00,WeatherDisplay:10.37,2013-12-03 13:37:00,
2013-12-03 07:42:00,64.9,64.1,29.83,NW,315,4.6,4.6,97,0.00,CLR,SKC,0.00,WeatherDisplay:10.37,2013-12-03 13:42:00,
2013-12-03 07:47:00,64.9,64.1,29.83,SW,225,2.3,2.3,97,0.00,CLR,SKC,0.00,WeatherDisplay:10.37,2013-12-03 13:47:00,
2013-12-03 07:52:00,65.1,64.2,29.83,West,270,3.5,3.5,97,0.00,CLR,SKC,0.00,WeatherDisplay:10.37,2013-12-03 13:52:00,
2013-12-03 07:57:00,65.1,64.2,29.80,SW,225,2.9,2.9,97,0.00,CLR,SKC,0.00,WeatherDisplay:10.37,2013-12-03 13:57:00,
2013-12-03 08:02:00,65.3,64.4,29.80,WSW,248,2.6,2.6,97,0.00,CLR,SKC,0.00,WeatherDisplay:10.37,2013-12-03 14:02:00,
2013-12-03 08:07:00,65.5,64.6,29.80,West,270,2.3,2.3,97,0.00,CLR,SKC,0.00,WeatherDisplay:10.37,2013-12-03 14:07:00,
2013-12-03 08:12:00,65.8,65.0,29.77,WNW,292,2.3,2.4,97,0.00,CLR,SKC,0.00,WeatherDisplay:10.37,2013-12-03 14:12:00,
2013-12-03 08:17:00,66.2,65.3,29.77,WNW,292,3.5,3.5,97,0.00,CLR,SKC,0.00,WeatherDisplay:10.37,2013-12-03 14:17:00,
2013-12-03 08:22:00,66.2,65.0,29.77,WNW,292,4.3,4.3,96,0.00,CLR,SKC,0.00,WeatherDisplay:10.37,2013-12-03 14:22:00,
2013-12-03 08:27:00,66.2,65.0,29.83,WNW,292,3.5,3.5,96,0.00,CLR,SKC,0.00,WeatherDisplay:10.37,2013-12-03 14:27:00,
2013-12-03 08:32:00,65.8,64.7,29.83,NW,315,3.5,3.5,96,0.00,CLR,SKC,0.00,WeatherDisplay:10.37,2013-12-03 14:32:00,
2013-12-03 08:37:00,65.7,64.5,29.83,WSW,248,2.3,2.3,96,0.00,CLR,SKC,0.00,WeatherDisplay:10.37,2013-12-03 14:37:00,
2013-12-03 08:42:00,65.5,64.6,29.83,WSW,248,2.3,2.3,97,0.00,CLR,SKC,0.00,WeatherDisplay:10.37,2013-12-03 14:42:00,
2013-12-03 08:47:00,65.3,64.4,29.83,WSW,248,2.3,2.3,97,0.00,CLR,SKC,0.00,WeatherDisplay:10.37,2013-12-03 14:47:00,
2013-12-03 08:52:00,65.1,64.2,29.83,WSW,248,2.3,2.3,97,0.00,CLR,SKC,0.00,WeatherDisplay:10.37,2013-12-03 14:52:00,
2013-12-03 08:57:00,65.5,64.6,29.86,WNW,292,4.3,4.3,97,0.00,CLR,SKC,0.00,WeatherDisplay:10.37,2013-12-03 14:57:00,
2013-12-03 09:02:00,65.7,64.8,29.86,NW,315,2.4,2.4,97,0.00,CLR,SKC,0.00,WeatherDisplay:10.37,2013-12-03 15:02:00,
2013-12-03 09:07:00,65.8,65.0,29.86,West,270,2.3,2.3,97,0.00,CLR,SKC,0.00,WeatherDisplay:10.37,2013-12-03 15:07:00,
2013-12-03 09:12:00,66.0,65.1,29.86,South,180,2.9,2.9,97,0.00,CLR,SKC,0.00,WeatherDisplay:10.37,2013-12-03 15:12:00,
2013-12-03 09:17:00,67.5,66.6,29.86,SSE,158,2.3,2.3,97,0.00,CLR,SKC,0.00,WeatherDisplay:10.37,2013-12-03 15:17:00,
2013-12-03 09:22:00,69.8,68.0,29.86,SW,225,2.3,2.3,94,0.00,CLR,SKC,0.00,WeatherDisplay:10.37,2013-12-03 15:22:00,
2013-12-03 09:27:00,70.3,67.6,29.86,WSW,248,5.8,5.8,91,0.00,CLR,SKC,0.00,WeatherDisplay:10.37,2013-12-03 15:27:00,
2013-12-03 09:32:00,70.2,66.8,29.86,ESE,112,5.8,5.8,89,0.00,CLR,SKC,0.00,WeatherDisplay:10.37,2013-12-03 15:32:00,
2013-12-03 09:37:00,69.8,66.1,29.86,WNW,292,5.8,5.8,88,0.00,CLR,SKC,0.00,WeatherDisplay:10.37,2013-12-03 15:37:00,
2013-12-03 09:42:00,69.4,66.1,29.86,East,90,2.3,2.3,89,0.00,CLR,SKC,0.00,WeatherDisplay:10.37,2013-12-03 15:42:00,
2013-12-03 09:47:00,69.3,65.9,29.86,WNW,292,3.5,3.5,89,0.00,CLR,SKC,0.00,WeatherDisplay:10.37,2013-12-03 15:47:00,
2013-12-03 09:52:00,69.4,66.1,29.86,WSW,248,2.4,2.4,89,0.00,CLR,SKC,0.00,WeatherDisplay:10.37,2013-12-03 15:52:00,
2013-12-03 09:57:00,69.4,66.1,29.86,ESE,112,3.5,3.5,89,0.00,CLR,SKC,0.00,WeatherDisplay:10.37,2013-12-03 15:57:00,
2013-12-03 10:02:00,69.6,66.2,29.86,WSW,248,3.1,3.1,89,0.00,CLR,SKC,0.00,WeatherDisplay:10.37,2013-12-03 16:02:00,
2013-12-03 10:07:00,69.8,66.1,29.86,West,270,4.6,4.6,88,0.00,CLR,SKC,0.00,WeatherDisplay:10.37,2013-12-03 16:07:00,
2013-12-03 10:12:00,70.2,66.4,29.83,WSW,248,2.4,2.4,88,0.00,CLR,SKC,0.00,WeatherDisplay:10.37,2013-12-03 16:12:00,
2013-12-03 10:17:00,70.9,66.8,29.83,SSW,202,3.5,3.5,87,0.00,CLR,SKC,0.00,WeatherDisplay:10.37,2013-12-03 16:17:00,
2013-12-03 10:22:00,70.7,66.3,29.83,South,180,4.6,4.6,86,0.00,CLR,SKC,0.00,WeatherDisplay:10.37,2013-12-03 16:22:00,
2013-12-03 10:27:00,70.5,65.8,29.83,WSW,248,6.9,6.9,85,0.00,CLR,SKC,0.00,WeatherDisplay:10.37,2013-12-03 16:27:00,
2013-12-03 10:32:00,70.3,65.6,29.83,SSW,202,3.5,3.5,85,0.00,CLR,SKC,0.00,WeatherDisplay:10.37,2013-12-03 16:32:00,
2013-12-03 10:37:00,69.6,65.2,29.83,WSW,248,4.6,4.6,86,0.00,CLR,SKC,0.00,WeatherDisplay:10.37,2013-12-03 16:37:00,
2013-12-03 10:42:00,69.4,65.4,29.83,WNW,292,3.5,3.5,87,0.00,CLR,SKC,0.00,WeatherDisplay:10.37,2013-12-03 16:42:00,
2013-12-03 10:47:00,69.3,65.2,29.83,WSW,248,3.5,3.5,87,0.00,CLR,SKC,0.00,WeatherDisplay:10.37,2013-12-03 16:47:00,
2013-12-03 10:52:00,69.3,65.2,29.83,WSW,248,3.5,3.5,87,0.00,CLR,SKC,0.00,WeatherDisplay:10.37,2013-12-03 16:52:00,
2013-12-03 10:57:00,69.4,65.7,29.83,WNW,292,5.8,5.8,88,0.00,CLR,SKC,0.00,WeatherDisplay:10.37,2013-12-03 16:57:00,
2013-12-03 11:02:00,69.6,65.9,29.83,WSW,248,5.8,5.8,88,0.00,CLR,SKC,0.00,WeatherDisplay:10.37,2013-12-03 17:02:00,
2013-12-03 11:07:00,70.0,65.9,29.83,SW,225,4.6,4.6,87,0.00,CLR,SKC,0.00,WeatherDisplay:10.37,2013-12-03 17:07:00,
2013-12-03 11:12:00,71.1,66.3,29.80,WSW,248,8.1,8.1,85,0.00,CLR,SKC,0.00,WeatherDisplay:10.37,2013-12-03 17:12:00,
2013-12-03 11:15:00,66.2,65.6,29.86,SW,224,2.0,4.0,98,0.00,CLR,SKC,0.00,WeatherDisplay:10.37,2013-12-03 17:15:00,
2013-12-03 11:16:00,66.2,65.6,29.86,SW,216,2.0,5.0,98,0.00,CLR,SKC,0.00,WeatherDisplay:10.37,2013-12-03 17:16:00,
2013-12-03 11:17:00,71.1,66.3,29.80,SSW,202,5.8,5.8,85,0.00,CLR,SKC,0.00,WeatherDisplay:10.37,2013-12-03 17:17:00,
2013-12-03 11:18:00,66.2,65.6,29.86,SW,216,2.0,0.0,98,0.00,CLR,SKC,0.00,WeatherDisplay:10.37,2013-12-03 17:18:00,
2013-12-03 11:19:00,66.2,65.6,29.86,SW,216,2.0,0.0,98,0.00,CLR,SKC,0.00,WeatherDisplay:10.37,2013-12-03 17:19:00,
2013-12-03 11:20:00,66.2,65.6,29.86,SW,216,2.0,0.0,98,0.00,CLR,SKC,0.00,WeatherDisplay:10.37,2013-12-03 17:20:00,
2013-12-03 11:22:00,70.9,65.8,29.80,SSW,202,5.8,5.8,84,0.00,CLR,SKC,0.00,WeatherDisplay:10.37,2013-12-03 17:22:00,
2013-12-03 11:27:00,70.7,66.0,29.80,South,180,3.5,3.5,85,0.00,CLR,SKC,0.00,WeatherDisplay:10.37,2013-12-03 17:27:00,
2013-12-03 11:32:00,71.2,66.5,29.80,SSW,202,3.5,3.5,85,0.00,CLR,SKC,0.00,WeatherDisplay:10.37,2013-12-03 17:32:00,
2013-12-03 11:37:00,71.4,66.0,29.80,West,270,6.2,6.2,83,0.00,CLR,SKC,0.00,WeatherDisplay:10.37,2013-12-03 17:37:00,
2013-12-03 11:42:00,71.8,66.3,29.80,SSE,158,6.0,6.0,83,0.00,CLR,SKC,0.00,WeatherDisplay:10.37,2013-12-03 17:42:00,
2013-12-03 11:47:00,71.8,66.0,29.80,WNW,292,3.5,3.5,82,0.00,CLR,SKC,0.00,WeatherDisplay:10.37,2013-12-03 17:47:00,
2013-12-03 11:52:00,72.0,65.8,29.80,WSW,248,6.4,6.4,81,0.00,CLR,SKC,0.00,WeatherDisplay:10.37,2013-12-03 17:52:00,
2013-12-03 11:57:00,72.1,66.0,29.80,WSW,248,6.9,6.9,81,0.00,CLR,SKC,0.00,WeatherDisplay:10.37,2013-12-03 17:57:00,
2013-12-03 12:02:00,72.0,65.8,29.80,WSW,248,2.6,3.1,81,0.00,CLR,SKC,0.00,WeatherDisplay:10.37,2013-12-03 18:02:00,
2013-12-03 12:07:00,71.8,65.6,29.80,SW,225,3.5,3.5,81,0.00,CLR,SKC,0.00,WeatherDisplay:10.37,2013-12-03 18:07:00,
2013-12-03 12:12:00,71.6,65.5,29.80,WNW,292,5.8,5.8,81,0.00,CLR,SKC,0.00,WeatherDisplay:10.37,2013-12-03 18:12:00,
2013-12-03 12:17:00,71.8,65.6,29.80,NW,315,3.5,3.5,81,0.00,CLR,SKC,0.00,WeatherDisplay:10.37,2013-12-03 18:17:00,
2013-12-03 12:22:00,71.6,65.5,29.80,West,270,4.6,4.7,81,0.00,CLR,SKC,0.00,WeatherDisplay:10.37,2013-12-03 18:22:00,
2013-12-03 12:27:00,71.4,65.6,29.80,WSW,248,5.8,5.8,82,0.00,CLR,SKC,0.00,WeatherDisplay:10.37,2013-12-03 18:27:00,
2013-12-03 12:32:00,71.2,65.5,29.80,WSW,248,6.9,6.9,82,0.00,CLR,SKC,0.00,WeatherDisplay:10.37,2013-12-03 18:32:00,
2013-12-03 12:37:00,71.1,65.6,29.80,SSW,202,3.5,3.5,83,0.00,CLR,SKC,0.00,WeatherDisplay:10.37,2013-12-03 18:37:00,
2013-12-03 12:42:00,70.7,65.3,29.80,WNW,292,3.5,3.5,83,0.00,CLR,SKC,0.00,WeatherDisplay:10.37,2013-12-03 18:42:00,
2013-12-03 12:47:00,70.7,65.6,29.80,NW,315,4.6,4.6,84,0.00,CLR,SKC,0.00,WeatherDisplay:10.37,2013-12-03 18:47:00,
2013-12-03 12:52:00,70.5,65.4,29.80,WNW,292,5.8,5.8,84,0.00,CLR,SKC,0.00,WeatherDisplay:10.37,2013-12-03 18:52:00,
2013-12-03 12:57:00,70.5,65.8,29.77,WSW,248,4.7,4.7,85,0.00,CLR,SKC,0.00,WeatherDisplay:10.37,2013-12-03 18:57:00,
2013-12-03 13:02:00,70.3,65.6,29.77,South,180,5.8,5.8,85,0.00,CLR,SKC,0.00,WeatherDisplay:10.37,2013-12-03 19:02:00,
2013-12-03 13:07:00,70.7,66.0,29.77,WSW,248,3.3,3.3,85,0.00,CLR,SKC,0.00,WeatherDisplay:10.37,2013-12-03 19:07:00,
2013-12-03 13:12:00,71.1,66.3,29.77,SSW,202,4.6,4.6,85,0.00,CLR,SKC,0.00,WeatherDisplay:10.37,2013-12-03 19:12:00,
2013-12-03 13:17:00,71.2,66.2,29.77,West,270,4.6,4.6,84,0.00,CLR,SKC,0.00,WeatherDisplay:10.37,2013-12-03 19:17:00,
2013-12-03 13:21:00,66.0,65.4,29.86,ESE,112,2.0,2.0,98,0.00,CLR,SKC,0.00,WeatherDisplay:10.37,2013-12-03 19:21:00,
2013-12-03 13:22:00,72.1,66.7,29.77,SW,225,6.9,6.9,83,0.00,CLR,SKC,0.00,WeatherDisplay:10.37,2013-12-03 19:22:00,
2013-12-03 13:23:00,66.0,65.4,29.86,ESE,112,2.0,0.0,98,0.00,CLR,SKC,0.00,WeatherDisplay:10.37,2013-12-03 19:23:00,
2013-12-03 13:24:00,66.0,65.4,29.86,ESE,112,2.0,0.0,98,0.00,CLR,SKC,0.00,WeatherDisplay:10.37,2013-12-03 19:24:00,
2013-12-03 13:25:00,66.0,65.4,29.86,ESE,112,2.0,0.0,98,0.00,CLR,SKC,0.00,WeatherDisplay:10.37,2013-12-03 19:25:00,
2013-12-03 13:27:00,72.3,66.5,29.77,SSE,158,4.3,4.3,82,0.00,CLR,SKC,0.00,WeatherDisplay:10.37,2013-12-03 19:27:00,
2013-12-03 13:32:00,72.3,66.5,29.77,SSW,202,6.7,6.7,82,0.00,CLR,SKC,0.00,WeatherDisplay:10.37,2013-12-03 19:32:00,
2013-12-03 13:37:00,72.5,66.7,29.77,West,270,3.5,3.5,82,0.00,CLR,SKC,0.00,WeatherDisplay:10.37,2013-12-03 19:37:00,
2013-12-03 13:42:00,71.8,65.6,29.77,SSW,202,5.8,5.8,81,0.00,CLR,SKC,0.00,WeatherDisplay:10.37,2013-12-03 19:42:00,
2013-12-03 13:47:00,71.2,65.5,29.77,West,270,6.9,6.9,82,0.00,CLR,SKC,0.00,WeatherDisplay:10.37,2013-12-03 19:47:00,
2013-12-03 13:51:00,66.0,65.4,29.86,SW,225,2.0,7.0,98,0.00,CLR,SKC,0.00,WeatherDisplay:10.37,2013-12-03 19:51:00,
2013-12-03 13:52:00,70.5,65.4,29.77,WNW,292,9.2,9.2,84,0.00,CLR,SKC,0.00,WeatherDisplay:10.37,2013-12-03 19:52:00,
2013-12-03 13:53:00,66.0,65.4,29.86,SW,225,2.0,0.0,98,0.00,CLR,SKC,0.00,WeatherDisplay:10.37,2013-12-03 19:53:00,
2013-12-03 13:54:00,66.0,65.4,29.86,SW,225,2.0,0.0,98,0.00,CLR,SKC,0.00,WeatherDisplay:10.37,2013-12-03 19:54:00,
2013-12-03 13:55:00,66.0,65.4,29.86,SW,225,2.0,0.0,98,0.00,CLR,SKC,0.00,WeatherDisplay:10.37,2013-12-03 19:55:00,
2013-12-03 13:57:00,70.3,65.6,29.77,SSW,202,5.6,5.6,85,0.00,CLR,SKC,0.00,WeatherDisplay:10.37,2013-12-03 19:57:00,
2013-12-03 14:02:00,70.0,65.6,29.77,SSW,202,4.3,4.3,86,0.00,CLR,SKC,0.00,WeatherDisplay:10.37,2013-12-03 20:02:00,
2013-12-03 14:07:00,69.8,65.4,29.77,ENE,68,3.8,3.8,86,0.00,CLR,SKC,0.00,WeatherDisplay:10.37,2013-12-03 20:07:00,
2013-12-03 14:11:00,65.8,65.3,29.83,South,180,1.0,2.0,98,0.00,CLR,SKC,0.00,WeatherDisplay:10.37,2013-12-03 20:11:00,
2013-12-03 14:12:00,69.8,65.8,29.77,SSW,202,4.6,4.6,87,0.00,CLR,SKC,0.00,WeatherDisplay:10.37,2013-12-03 20:12:00,
2013-12-03 14:13:00,65.8,65.3,29.83,South,180,1.0,0.0,98,0.00,CLR,SKC,0.00,WeatherDisplay:10.37,2013-12-03 20:13:00,
2013-12-03 14:14:00,65.8,65.3,29.83,South,180,1.0,0.0,98,0.00,CLR,SKC,0.00,WeatherDisplay:10.37,2013-12-03 20:14:00,
2013-12-03 14:15:00,65.8,65.3,29.83,South,180,1.0,0.0,98,0.00,CLR,SKC,0.00,WeatherDisplay:10.37,2013-12-03 20:15:00,
2013-12-03 14:17:00,69.8,65.8,29.77,ENE,68,3.5,3.5,87,0.00,CLR,SKC,0.00,WeatherDisplay:10.37,2013-12-03 20:17:00,
2013-12-03 14:22:00,70.0,65.9,29.77,West,270,4.3,4.3,87,0.00,CLR,SKC,0.00,WeatherDisplay:10.37,2013-12-03 20:22:00,
2013-12-03 14:27:00,70.9,66.8,29.77,South,180,3.5,3.5,87,0.00,CLR,SKC,0.00,WeatherDisplay:10.37,2013-12-03 20:27:00,
2013-12-03 14:32:00,71.6,67.2,29.77,SSW,202,3.8,3.8,86,0.00,CLR,SKC,0.00,WeatherDisplay:10.37,2013-12-03 20:32:00,
2013-12-03 14:37:00,72.0,67.2,29.77,NNW,338,5.8,5.8,85,0.00,CLR,SKC,0.00,WeatherDisplay:10.37,2013-12-03 20:37:00,
2013-12-03 14:42:00,71.6,66.5,29.77,West,270,5.8,5.8,84,0.00,CLR,SKC,0.00,WeatherDisplay:10.37,2013-12-03 20:42:00,
2013-12-03 14:45:00,66.6,66.0,29.83,WSW,251,3.0,3.0,98,0.00,CLR,SKC,0.00,WeatherDisplay:10.37,2013-12-03 20:45:00,
2013-12-03 14:46:00,66.7,66.2,29.83,WSW,237,1.0,3.0,98,0.00,CLR,SKC,0.00,WeatherDisplay:10.37,2013-12-03 20:46:00,
2013-12-03 14:47:00,71.6,66.5,29.77,South,180,4.6,4.6,84,0.00,CLR,SKC,0.00,WeatherDisplay:10.37,2013-12-03 20:47:00,
2013-12-03 14:48:00,66.7,66.2,29.83,WSW,237,1.0,0.0,98,0.00,CLR,SKC,0.00,WeatherDisplay:10.37,2013-12-03 20:48:00,
2013-12-03 14:49:00,66.7,66.2,29.83,WSW,237,1.0,0.0,98,0.00,CLR,SKC,0.00,WeatherDisplay:10.37,2013-12-03 20:49:00,
2013-12-03 14:50:00,66.7,66.2,29.83,WSW,237,1.0,0.0,98,0.00,CLR,SKC,0.00,WeatherDisplay:10.37,2013-12-03 20:50:00,
2013-12-03 14:52:00,71.4,66.7,29.77,SSW,202,3.6,3.6,85,0.00,CLR,SKC,0.00,WeatherDisplay:10.37,2013-12-03 20:52:00,
2013-12-03 14:57:00,71.1,66.7,29.77,SW,225,3.5,3.5,86,0.00,CLR,SKC,0.00,WeatherDisplay:10.37,2013-12-03 20:57:00,
2013-12-03 15:02:00,70.9,66.5,29.77,WSW,248,6.9,6.9,86,0.00,CLR,SKC,0.00,WeatherDisplay:10.37,2013-12-03 21:02:00,
2013-12-03 15:05:00,66.9,66.3,29.86,SW,229,2.0,4.0,98,0.00,CLR,SKC,0.00,WeatherDisplay:10.37,2013-12-03 21:05:00,
2013-12-03 15:06:00,66.9,66.3,29.86,WNW,288,2.0,3.0,98,0.00,CLR,SKC,0.00,WeatherDisplay:10.37,2013-12-03 21:06:00,
2013-12-03 15:07:00,70.7,66.3,29.77,WNW,292,4.6,4.6,86,0.00,CLR,SKC,0.00,WeatherDisplay:10.37,2013-12-03 21:07:00,
2013-12-03 15:08:00,66.9,66.3,29.86,WNW,288,2.0,0.0,98,0.00,CLR,SKC,0.00,WeatherDisplay:10.37,2013-12-03 21:08:00,
2013-12-03 15:09:00,66.9,66.3,29.86,WNW,288,2.0,0.0,98,0.00,CLR,SKC,0.00,WeatherDisplay:10.37,2013-12-03 21:09:00,
2013-12-03 15:10:00,66.9,66.3,29.86,WNW,288,2.0,0.0,98,0.00,CLR,SKC,0.00,WeatherDisplay:10.37,2013-12-03 21:10:00,
2013-12-03 15:12:00,70.7,66.6,29.77,ESE,112,4.6,4.6,87,0.00,CLR,SKC,0.00,WeatherDisplay:10.37,2013-12-03 21:12:00,
2013-12-03 15:17:00,70.5,66.5,29.77,South,180,2.3,2.3,87,0.00,CLR,SKC,0.00,WeatherDisplay:10.37,2013-12-03 21:17:00,
2013-12-03 15:22:00,70.2,66.1,29.77,WSW,248,3.5,3.5,87,0.00,CLR,SKC,0.00,WeatherDisplay:10.37,2013-12-03 21:22:00,
2013-12-03 15:25:00,67.1,66.5,29.86,SSW,195,1.0,1.0,98,0.00,CLR,SKC,0.00,WeatherDisplay:10.37,2013-12-03 21:25:00,
2013-12-03 15:27:00,70.3,66.3,29.77,WSW,248,4.6,4.6,87,0.00,CLR,SKC,0.00,WeatherDisplay:10.37,2013-12-03 21:27:00,
2013-12-03 15:30:00,67.1,66.5,29.86,SSW,208,2.0,6.0,98,0.00,CLR,SKC,0.00,WeatherDisplay:10.37,2013-12-03 21:30:00,
2013-12-03 15:32:00,69.8,66.1,29.77,SSW,202,8.1,8.1,88,0.00,CLR,SKC,0.00,WeatherDisplay:10.37,2013-12-03 21:32:00,
2013-12-03 15:35:00,67.3,66.7,29.86,SW,221,3.0,3.0,98,0.00,CLR,SKC,0.00,WeatherDisplay:10.37,2013-12-03 21:35:00,
2013-12-03 15:37:00,69.6,66.2,29.77,West,270,4.6,4.6,89,0.00,CLR,SKC,0.00,WeatherDisplay:10.37,2013-12-03 21:37:00,
2013-12-03 15:40:00,67.3,66.7,29.86,SW,236,1.0,2.0,98,0.00,CLR,SKC,0.00,WeatherDisplay:10.37,2013-12-03 21:40:00,
2013-12-03 15:41:00,67.5,66.9,29.86,WSW,243,1.0,2.0,98,0.00,CLR,SKC,0.00,WeatherDisplay:10.37,2013-12-03 21:41:00,
2013-12-03 15:42:00,69.8,66.4,29.77,West,270,2.3,2.3,89,0.00,CLR,SKC,0.00,WeatherDisplay:10.37,2013-12-03 21:42:00,
2013-12-03 15:43:00,67.5,66.9,29.86,WSW,243,1.0,0.0,98,0.00,CLR,SKC,0.00,WeatherDisplay:10.37,2013-12-03 21:43:00,
2013-12-03 15:44:00,67.5,66.9,29.86,WSW,243,1.0,0.0,98,0.00,CLR,SKC,0.00,WeatherDisplay:10.37,2013-12-03 21:44:00,
2013-12-03 15:45:00,67.5,66.9,29.86,WSW,243,1.0,0.0,98,0.00,CLR,SKC,0.00,WeatherDisplay:10.37,2013-12-03 21:45:00,
2013-12-03 15:47:00,69.3,65.9,29.77,SSW,202,4.6,4.6,89,0.00,CLR,SKC,0.00,WeatherDisplay:10.37,2013-12-03 21:47:00,
2013-12-03 15:52:00,68.9,65.8,29.77,SSW,202,2.3,2.3,90,0.00,CLR,SKC,0.00,WeatherDisplay:10.37,2013-12-03 21:52:00,
2013-12-03 15:57:00,68.5,65.8,29.77,West,270,4.6,4.6,91,0.00,CLR,SKC,0.00,WeatherDisplay:10.37,2013-12-03 21:57:00,
2013-12-03 16:02:00,68.2,65.5,29.77,WSW,248,4.6,4.6,91,0.00,CLR,SKC,0.00,WeatherDisplay:10.37,2013-12-03 22:02:00,
2013-12-03 16:07:00,67.8,65.4,29.77,WSW,248,3.5,3.5,92,0.00,CLR,SKC,0.00,WeatherDisplay:10.37,2013-12-03 22:07:00,
2013-12-03 16:12:00,67.6,65.5,29.77,SSW,202,4.6,4.6,93,0.00,CLR,SKC,0.00,WeatherDisplay:10.37,2013-12-03 22:12:00,
2013-12-03 16:17:00,67.3,65.2,29.77,SW,225,4.6,4.6,93,0.00,CLR,SKC,0.00,WeatherDisplay:10.37,2013-12-03 22:17:00,
2013-12-03 16:22:00,67.1,65.3,29.77,South,180,3.5,3.5,94,0.00,CLR,SKC,0.00,WeatherDisplay:10.37,2013-12-03 22:22:00,
2013-12-03 16:27:00,66.7,65.0,29.77,SSW,202,6.9,6.9,94,0.00,CLR,SKC,0.00,WeatherDisplay:10.37,2013-12-03 22:27:00,
2013-12-03 16:32:00,66.7,65.0,29.77,SW,225,4.9,4.9,94,0.00,CLR,SKC,0.00,WeatherDisplay:10.37,2013-12-03 22:32:00,
2013-12-03 16:36:00,67.5,66.9,29.86,SSW,207,1.0,2.0,98,0.00,CLR,SKC,0.00,WeatherDisplay:10.37,2013-12-03 22:36:00,
2013-12-03 16:37:00,66.4,64.9,29.77,NNW,338,1.4,1.4,95,0.00,CLR,SKC,0.00,WeatherDisplay:10.37,2013-12-03 22:37:00,
2013-12-03 16:38:00,67.5,66.9,29.86,SSW,207,1.0,0.0,98,0.00,CLR,SKC,0.00,WeatherDisplay:10.37,2013-12-03 22:38:00,
2013-12-03 16:39:00,67.5,66.9,29.86,SSW,207,1.0,0.0,98,0.00,CLR,SKC,0.00,WeatherDisplay:10.37,2013-12-03 22:39:00,
2013-12-03 16:40:00,67.5,66.9,29.86,SSW,207,1.0,0.0,98,0.00,CLR,SKC,0.00,WeatherDisplay:10.37,2013-12-03 22:40:00,
2013-12-03 16:42:00,66.2,64.7,29.77,SSW,202,2.3,2.3,95,0.00,CLR,SKC,0.00,WeatherDisplay:10.37,2013-12-03 22:42:00,
2013-12-03 16:47:00,66.0,64.8,29.77,WSW,248,2.4,0.0,96,0.00,CLR,SKC,0.00,WeatherDisplay:10.37,2013-12-03 22:47:00,
2013-12-03 16:52:00,65.8,64.7,29.77,SW,225,2.4,2.4,96,0.00,CLR,SKC,0.00,WeatherDisplay:10.37,2013-12-03 22:52:00,
2013-12-03 16:57:00,65.8,64.7,29.77,WSW,248,2.3,2.3,96,0.00,CLR,SKC,0.00,WeatherDisplay:10.37,2013-12-03 22:57:00,
2013-12-03 17:02:00,65.7,64.8,29.77,WSW,248,4.0,4.0,97,0.00,CLR,SKC,0.00,WeatherDisplay:10.37,2013-12-03 23:02:00,
2013-12-03 17:07:00,65.7,64.8,29.77,NW,315,2.2,2.2,97,0.00,CLR,SKC,0.00,WeatherDisplay:10.37,2013-12-03 23:07:00,
2013-12-03 17:12:00,65.5,64.6,29.77,West,270,1.2,1.2,97,0.00,CLR,SKC,0.00,WeatherDisplay:10.37,2013-12-03 23:12:00,
2013-12-03 17:17:00,65.5,64.6,29.77,WSW,248,5.8,5.8,97,0.00,CLR,SKC,0.00,WeatherDisplay:10.37,2013-12-03 23:17:00,
2013-12-03 17:22:00,65.5,64.6,29.77,SSW,202,1.6,1.6,97,0.00,CLR,SKC,0.00,WeatherDisplay:10.37,2013-12-03 23:22:00,
2013-12-03 17:27:00,65.5,64.6,29.77,West,270,3.5,3.5,97,0.00,CLR,SKC,0.00,WeatherDisplay:10.37,2013-12-03 23:27:00,
2013-12-03 17:32:00,65.5,64.6,29.77,SSW,202,2.3,2.3,97,0.00,CLR,SKC,0.00,WeatherDisplay:10.37,2013-12-03 23:32:00,
2013-12-03 17:37:00,65.5,64.6,29.77,SSW,202,2.3,2.3,97,0.00,CLR,SKC,0.00,WeatherDisplay:10.37,2013-12-03 23:37:00,
2013-12-03 17:42:00,65.5,64.6,29.80,NW,315,2.3,2.3,97,0.00,CLR,SKC,0.00,WeatherDisplay:10.37,2013-12-03 23:42:00,
2013-12-03 17:47:00,65.5,64.6,29.80,WNW,292,2.3,2.6,97,0.00,CLR,SKC,0.00,WeatherDisplay:10.37,2013-12-03 23:47:00,
2013-12-03 17:52:00,65.5,64.6,29.80,WSW,248,3.5,3.5,97,0.00,CLR,SKC,0.00,WeatherDisplay:10.37,2013-12-03 23:52:00,
2013-12-03 17:57:00,65.5,64.6,29.80,SSW,202,3.5,3.5,97,0.00,CLR,SKC,0.00,WeatherDisplay:10.37,2013-12-03 23:57:00,
2013-12-03 18:02:00,65.5,64.6,29.80,SW,225,1.2,2.6,97,0.00,CLR,SKC,0.00,WeatherDisplay:10.37,2013-12-04 00:02:00,
2013-12-03 18:05:00,67.3,66.7,29.89,WSW,251,1.0,4.0,98,0.00,CLR,SKC,0.00,WeatherDisplay:10.37,2013-12-04 00:05:00,
2013-12-03 18:06:00,67.1,66.5,29.89,WSW,246,1.0,3.0,98,0.00,CLR,SKC,0.00,WeatherDisplay:10.37,2013-12-04 00:06:00,
2013-12-03 18:07:00,65.5,64.6,29.80,South,180,2.6,2.6,97,0.00,CLR,SKC,0.00,WeatherDisplay:10.37,2013-12-04 00:07:00,
2013-12-03 18:08:00,67.1,66.5,29.89,WSW,246,1.0,0.0,98,0.00,CLR,SKC,0.00,WeatherDisplay:10.37,2013-12-04 00:08:00,
2013-12-03 18:09:00,67.1,66.5,29.89,WSW,246,1.0,0.0,98,0.00,CLR,SKC,0.00,WeatherDisplay:10.37,2013-12-04 00:09:00,
2013-12-03 18:10:00,67.1,66.5,29.89,WSW,246,1.0,0.0,98,0.00,CLR,SKC,0.00,WeatherDisplay:10.37,2013-12-04 00:10:00,
2013-12-03 18:12:00,65.5,64.6,29.80,West,270,2.4,2.6,97,0.00,CLR,SKC,0.00,WeatherDisplay:10.37,2013-12-04 00:12:00,
2013-12-03 18:17:00,65.3,64.4,29.80,SSW,202,3.5,3.5,97,0.00,CLR,SKC,0.00,WeatherDisplay:10.37,2013-12-04 00:17:00,
2013-12-03 18:22:00,65.3,64.4,29.80,WSW,248,4.6,4.6,97,0.00,CLR,SKC,0.00,WeatherDisplay:10.37,2013-12-04 00:22:00,
2013-12-03 18:27:00,65.1,64.2,29.80,West,270,2.3,2.3,97,0.00,CLR,SKC,0.00,WeatherDisplay:10.37,2013-12-04 00:27:00,
2013-12-03 18:32:00,65.1,64.2,29.80,South,180,2.4,2.4,97,0.00,CLR,SKC,0.00,WeatherDisplay:10.37,2013-12-04 00:32:00,
2013-12-03 18:37:00,65.1,64.2,29.80,WSW,248,1.6,1.6,97,0.00,CLR,SKC,0.00,WeatherDisplay:10.37,2013-12-04 00:37:00,
2013-12-03 18:42:00,65.1,64.2,29.80,SSE,158,3.5,3.5,97,0.00,CLR,SKC,0.00,WeatherDisplay:10.37,2013-12-04 00:42:00,
2013-12-03 18:47:00,65.1,64.2,29.80,WSW,248,2.3,2.4,97,0.00,CLR,SKC,0.00,WeatherDisplay:10.37,2013-12-04 00:47:00,
2013-12-03 18:52:00,65.1,64.2,29.80,NNW,338,3.5,3.5,97,0.00,CLR,SKC,0.00,WeatherDisplay:10.37,2013-12-04 00:52:00,
2013-12-03 18:57:00,65.1,64.2,29.77,NNW,338,2.6,3.1,97,0.00,CLR,SKC,0.00,WeatherDisplay:10.37,2013-12-04 00:57:00,
2013-12-03 19:02:00,65.1,64.2,29.77,West,270,1.4,2.0,97,0.00,CLR,SKC,0.00,WeatherDisplay:10.37,2013-12-04 01:02:00,
2013-12-03 19:07:00,65.1,64.2,29.77,SW,225,3.5,3.5,97,0.00,CLR,SKC,0.00,WeatherDisplay:10.37,2013-12-04 01:07:00,
2013-12-03 19:12:00,65.1,64.2,29.80,WSW,248,4.6,4.6,97,0.00,CLR,SKC,0.00,WeatherDisplay:10.37,2013-12-04 01:12:00,
2013-12-03 19:17:00,65.1,64.2,29.80,SSW,202,1.4,1.4,97,0.00,CLR,SKC,0.00,WeatherDisplay:10.37,2013-12-04 01:17:00,
2013-12-03 19:22:00,65.1,64.2,29.80,SW,225,6.9,6.9,97,0.00,CLR,SKC,0.00,WeatherDisplay:10.37,2013-12-04 01:22:00,
2013-12-03 19:27:00,65.1,64.2,29.80,West,270,2.4,2.4,97,0.00,CLR,SKC,0.00,WeatherDisplay:10.37,2013-12-04 01:27:00,
2013-12-03 19:32:00,65.1,64.2,29.80,SW,225,3.5,3.5,97,0.00,CLR,SKC,0.00,WeatherDisplay:10.37,2013-12-04 01:32:00,
2013-12-03 19:37:00,65.1,64.2,29.80,West,270,2.3,2.3,97,0.00,CLR,SKC,0.00,WeatherDisplay:10.37,2013-12-04 01:37:00,
2013-12-03 19:42:00,65.1,64.2,29.83,SW,225,3.5,3.5,97,0.00,CLR,SKC,0.00,WeatherDisplay:10.37,2013-12-04 01:42:00,
2013-12-03 19:47:00,65.1,64.2,29.83,NW,315,2.3,2.3,97,0.00,CLR,SKC,0.00,WeatherDisplay:10.37,2013-12-04 01:47:00,
2013-12-03 19:52:00,65.1,64.2,29.83,West,270,2.3,2.3,97,0.00,CLR,SKC,0.00,WeatherDisplay:10.37,2013-12-04 01:52:00,
2013-12-03 19:57:00,65.1,64.2,29.80,WNW,292,3.5,3.5,97,0.00,CLR,SKC,0.00,WeatherDisplay:10.37,2013-12-04 01:57:00,
2013-12-03 20:02:00,64.9,64.1,29.80,NNW,338,2.3,2.3,97,0.00,CLR,SKC,0.00,WeatherDisplay:10.37,2013-12-04 02:02:00,
2013-12-03 20:07:00,64.8,63.9,29.80,West,270,1.6,2.2,97,0.00,CLR,SKC,0.00,WeatherDisplay:10.37,2013-12-04 02:07:00,
2013-12-03 20:12:00,64.8,63.9,29.83,WSW,248,4.6,4.6,97,0.00,CLR,SKC,0.00,WeatherDisplay:10.37,2013-12-04 02:12:00,
2013-12-03 20:17:00,64.8,63.9,29.83,WSW,248,1.2,1.4,97,0.00,CLR,SKC,0.00,WeatherDisplay:10.37,2013-12-04 02:17:00,
2013-12-03 20:22:00,64.8,63.9,29.83,SSW,202,4.6,4.6,97,0.00,CLR,SKC,0.00,WeatherDisplay:10.37,2013-12-04 02:22:00,
2013-12-03 20:27:00,64.9,64.1,29.83,WSW,248,3.5,3.5,97,0.00,CLR,SKC,0.00,WeatherDisplay:10.37,2013-12-04 02:27:00,
2013-12-03 20:32:00,65.1,64.2,29.83,NW,315,4.6,4.6,97,0.00,CLR,SKC,0.00,WeatherDisplay:10.37,2013-12-04 02:32:00,
2013-12-03 20:37:00,65.3,64.4,29.83,WNW,292,2.6,2.6,97,0.00,CLR,SKC,0.00,WeatherDisplay:10.37,2013-12-04 02:37:00,
2013-12-03 20:42:00,65.3,64.4,29.83,SW,225,2.4,2.4,97,0.00,CLR,SKC,0.00,WeatherDisplay:10.37,2013-12-04 02:42:00,
2013-12-03 20:47:00,65.3,64.4,29.83,South,180,2.4,2.4,97,0.00,CLR,SKC,0.00,WeatherDisplay:10.37,2013-12-04 02:47:00,
2013-12-03 20:52:00,65.5,64.6,29.83,WSW,248,3.5,3.5,97,0.00,CLR,SKC,0.00,WeatherDisplay:10.37,2013-12-04 02:52:00,
2013-12-03 20:57:00,65.5,64.6,29.83,WSW,248,2.6,2.9,97,0.00,CLR,SKC,0.00,WeatherDisplay:10.37,2013-12-04 02:57:00,
2013-12-03 21:02:00,65.5,64.6,29.83,WNW,292,2.9,2.9,97,0.00,CLR,SKC,0.00,WeatherDisplay:10.37,2013-12-04 03:02:00,
2013-12-03 21:07:00,65.7,64.8,29.83,WNW,292,2.9,2.9,97,0.00,CLR,SKC,0.00,WeatherDisplay:10.37,2013-12-04 03:07:00,
2013-12-03 21:12:00,65.7,64.8,29.86,WSW,248,4.6,4.6,97,0.00,CLR,SKC,0.00,WeatherDisplay:10.37,2013-12-04 03:12:00,
2013-12-03 21:17:00,65.7,64.8,29.86,WSW,248,4.6,4.6,97,0.00,CLR,SKC,0.00,WeatherDisplay:10.37,2013-12-04 03:17:00,
2013-12-03 21:22:00,65.8,65.0,29.86,SSW,202,10.4,10.4,97,0.00,CLR,SKC,0.00,WeatherDisplay:10.37,2013-12-04 03:22:00,
2013-12-03 21:27:00,65.8,65.0,29.83,WSW,248,3.5,3.5,97,0.00,CLR,SKC,0.00,WeatherDisplay:10.37,2013-12-04 03:27:00,
2013-12-03 21:32:00,66.0,65.1,29.83,WSW,248,3.5,3.5,97,0.00,CLR,SKC,0.00,WeatherDisplay:10.37,2013-12-04 03:32:00,
2013-12-03 21:37:00,66.2,65.3,29.83,WSW,248,3.5,3.5,97,0.00,CLR,SKC,0.00,WeatherDisplay:10.37,2013-12-04 03:37:00,
2013-12-03 21:42:00,66.2,65.3,29.86,West,270,5.8,5.8,97,0.00,CLR,SKC,0.00,WeatherDisplay:10.37,2013-12-04 03:42:00,
2013-12-03 21:47:00,66.2,65.3,29.86,ESE,112,5.8,5.8,97,0.00,CLR,SKC,0.00,WeatherDisplay:10.37,2013-12-04 03:47:00,
2013-12-03 21:52:00,66.2,65.3,29.86,SSW,202,2.4,3.1,97,0.00,CLR,SKC,0.00,WeatherDisplay:10.37,2013-12-04 03:52:00,
2013-12-03 21:57:00,66.2,65.3,29.86,SW,225,4.6,4.6,97,0.00,CLR,SKC,0.00,WeatherDisplay:10.37,2013-12-04 03:57:00,
2013-12-03 22:02:00,66.2,65.3,29.86,SW,225,2.3,3.3,97,0.00,CLR,SKC,0.00,WeatherDisplay:10.37,2013-12-04 04:02:00,
2013-12-03 22:07:00,66.0,65.1,29.86,SW,225,2.3,3.3,97,0.00,CLR,SKC,0.00,WeatherDisplay:10.37,2013-12-04 04:07:00,
2013-12-03 22:12:00,66.0,65.1,29.86,South,180,2.3,2.3,97,0.00,CLR,SKC,0.00,WeatherDisplay:10.37,2013-12-04 04:12:00,
2013-12-03 22:17:00,66.0,65.1,29.86,South,180,2.3,2.3,97,0.00,CLR,SKC,0.00,WeatherDisplay:10.37,2013-12-04 04:17:00,
2013-12-03 22:22:00,66.2,65.3,29.86,WSW,248,6.9,6.9,97,0.00,CLR,SKC,0.00,WeatherDisplay:10.37,2013-12-04 04:22:00,
2013-12-03 22:27:00,66.4,65.5,29.86,West,270,4.9,4.9,97,0.00,CLR,SKC,0.00,WeatherDisplay:10.37,2013-12-04 04:27:00,
2013-12-03 22:32:00,66.4,65.5,29.86,SSW,202,4.6,4.6,97,0.00,CLR,SKC,0.00,WeatherDisplay:10.37,2013-12-04 04:32:00,
2013-12-03 22:37:00,66.4,65.5,29.86,SSW,202,5.8,5.8,97,0.00,CLR,SKC,0.00,WeatherDisplay:10.37,2013-12-04 04:37:00,
2013-12-03 22:42:00,66.4,65.5,29.86,SSE,158,4.6,4.6,97,0.00,CLR,SKC,0.00,WeatherDisplay:10.37,2013-12-04 04:42:00,
2013-12-03 22:47:00,66.4,65.5,29.86,NNW,338,4.7,0.0,97,0.00,CLR,SKC,0.00,WeatherDisplay:10.37,2013-12-04 04:47:00,
2013-12-03 22:52:00,66.2,65.3,29.86,WNW,292,1.6,2.2,97,0.00,CLR,SKC,0.00,WeatherDisplay:10.37,2013-12-04 04:52:00,
2013-12-03 22:57:00,66.2,65.3,29.86,West,270,7.1,7.1,97,0.00,CLR,SKC,0.00,WeatherDisplay:10.37,2013-12-04 04:57:00,
2013-12-03 23:01:00,66.2,65.3,29.86,WSW,248,5.8,5.8,97,0.00,CLR,SKC,0.00,WeatherDisplay:10.37,2013-12-04 05:01:00,
2013-12-03 23:06:00,66.2,65.3,29.86,West,270,4.6,4.6,97,0.00,CLR,SKC,0.00,WeatherDisplay:10.37,2013-12-04 05:06:00,
2013-12-03 23:11:00,66.2,65.3,29.86,WSW,248,3.5,3.5,97,0.00,CLR,SKC,0.00,WeatherDisplay:10.37,2013-12-04 05:11:00,
2013-12-03 23:16:00,66.2,65.6,29.86,WSW,248,4.6,4.6,98,0.00,CLR,SKC,0.00,WeatherDisplay:10.37,2013-12-04 05:16:00,
2013-12-03 23:21:00,66.2,65.6,29.86,SSW,202,4.0,4.0,98,0.00,CLR,SKC,0.00,WeatherDisplay:10.37,2013-12-04 05:21:00,
2013-12-03 23:26:00,66.2,65.6,29.86,West,270,3.5,3.5,98,0.00,CLR,SKC,0.00,WeatherDisplay:10.37,2013-12-04 05:26:00,
2013-12-03 23:31:00,66.2,65.6,29.86,West,270,3.5,3.5,98,0.00,CLR,SKC,0.00,WeatherDisplay:10.37,2013-12-04 05:31:00,
2013-12-03 23:36:00,66.2,65.6,29.86,SW,225,4.6,4.6,98,0.00,CLR,SKC,0.00,WeatherDisplay:10.37,2013-12-04 05:36:00,
2013-12-03 23:41:00,66.2,65.6,29.86,South,180,3.5,3.5,98,0.00,CLR,SKC,0.00,WeatherDisplay:10.37,2013-12-04 05:41:00,
2013-12-03 23:46:00,66.2,65.6,29.86,WNW,292,3.5,3.8,98,0.00,CLR,SKC,0.00,WeatherDisplay:10.37,2013-12-04 05:46:00,
2013-12-03 23:51:00,66.2,65.6,29.86,WNW,292,5.8,5.8,98,0.00,CLR,SKC,0.00,WeatherDisplay:10.37,2013-12-04 05:51:00,
2013-12-03 23:56:00,66.0,65.4,29.86,West,270,3.5,3.5,98,0.00,CLR,SKC,0.00,WeatherDisplay:10.37,2013-12-04 05:56:00,